Weather History for Sunlight Mountain, CO

Change the Weather History Date:

Saturday, February 22, 2014

  Actual Average (KRIL) Record (KRIL)
Temperature  
Mean Temperature 22 °F 33 °F  
Max Temperature 30 °F 45 °F 62 °F (2007)
Min Temperature 14 °F 21 °F -8 °F (1939)
Degree Days  
Heating Degree Days 43 32  
Month to date heating degree days 777  
Since 1 July heating degree days 4812  
Cooling Degree Days 0 0  
Month to date cooling degree days 0  
Year to date cooling degree days 0  
Moisture  
Dew Point 12 °F    
Average Humidity 65    
Maximum Humidity 79    
Minimum Humidity 51    
Precipitation  
Precipitation 0.00 in 0.03 in 0.48 in (1948)
Month to date precipitation 0.59  
Year to date precipitation 1.40  
Sea Level Pressure  
Sea Level Pressure 29.91 in    
Wind  
Wind Speed 1 mph (SSW)    
Max Wind Speed 5 mph    
Max Gust Speed -    
Visibility 9 miles    
Events      
T = Trace of Precipitation, MM = Missing Value Source: NWS Daily Summary

Daily Weather History Graph

Daily Weather History Graph

Search for Another Location

Airport:

Trip Planner

Search our weather history database for the weather conditions in past years. The results will help you decide how hot, cold, wet, or windy it might be!

Date:

Astronomy

Feb. 22, 2014 Rise Set
Actual Time 6:52 AM MST 5:54 PM MST
Civil Twilight 6:25 AM MST 6:21 PM MST
Nautical Twilight 5:53 AM MST 6:52 PM MST
Astronomical Twilight 5:22 AM MST 7:23 PM MST
Moon 12:49 AM MST (2/22) 11:08 AM MST (2/22)
Length of Visible Light 11h 56m
Length of Day
11h 02m
Waning Gibbous, 49% of the Moon is Illuminated
Feb 22
Waning Gibbous
Mar 1
New
Mar 8
First Quarter
Mar 16
Full
Mar 23
Last Quarter

Hourly Weather History & Observations

Time (MST) Temp. Windchill Dew Point Humidity Pressure Visibility Wind Dir Wind Speed Gust Speed Precip Events Conditions
12:04 AM 19.4 °F - 12.2 °F 74% 29.93 in 10.0 mi Calm Calm - N/A   Scattered Clouds
12:24 AM 17.6 °F - 10.4 °F 73% 29.93 in 7.0 mi Calm Calm - N/A   Clear
12:44 AM 17.6 °F - 10.4 °F 73% 29.93 in 7.0 mi Calm Calm - N/A   Clear
1:04 AM 17.6 °F - 10.4 °F 73% 29.93 in 10.0 mi Calm Calm - N/A   Clear
1:24 AM 17.6 °F - 10.4 °F 73% 29.93 in 7.0 mi Calm Calm - N/A   Clear
1:44 AM 17.6 °F - 10.4 °F 73% 29.93 in 7.0 mi Calm Calm - N/A   Clear
2:04 AM 17.6 °F - 10.4 °F 73% 29.91 in 7.0 mi Calm Calm - N/A   Clear
2:24 AM 15.8 °F - 10.4 °F 79% 29.91 in 7.0 mi Calm Calm - N/A   Clear
2:44 AM 15.8 °F - 10.4 °F 79% 29.91 in 7.0 mi Calm Calm - N/A   Clear
3:04 AM 17.6 °F - 8.6 °F 68% 29.90 in 7.0 mi Calm Calm - N/A   Clear
3:24 AM 17.6 °F 12.3 °F 8.6 °F 68% 29.89 in 7.0 mi SW 3.5 mph - N/A   Clear
3:43 AM 17.6 °F - 8.6 °F 68% 29.90 in 7.0 mi Calm Calm - N/A   Clear
4:04 AM 14.0 °F - 8.6 °F 79% 29.90 in 7.0 mi Calm Calm - N/A   Clear
4:24 AM 14.0 °F - 8.6 °F 79% 29.90 in 7.0 mi Calm Calm - N/A   Clear
4:44 AM 14.0 °F - 8.6 °F 79% 29.89 in 7.0 mi Calm Calm - N/A   Clear
5:04 AM 15.8 °F - 8.6 °F 73% 29.89 in 7.0 mi Calm Calm - N/A   Clear
5:24 AM 15.8 °F - 8.6 °F 73% 29.89 in 7.0 mi Calm Calm - N/A   Clear
5:44 AM 15.8 °F - 8.6 °F 73% 29.89 in 7.0 mi Calm Calm - N/A   Clear
6:04 AM 15.8 °F - 8.6 °F 73% 29.89 in 7.0 mi Calm Calm - N/A   Clear
6:24 AM 14.0 °F - 8.6 °F 79% 29.89 in 7.0 mi Calm Calm - N/A   Clear
6:44 AM 14.0 °F - 8.6 °F 79% 29.88 in 7.0 mi Calm Calm - N/A   Clear
7:03 AM 15.8 °F - 8.6 °F 73% 29.88 in 7.0 mi Calm Calm - N/A   Scattered Clouds
7:24 AM 15.8 °F - 8.6 °F 73% 29.87 in 7.0 mi Calm Calm - N/A   Mostly Cloudy
7:44 AM 17.6 °F - 8.6 °F 68% 29.89 in 7.0 mi Calm Calm - N/A   Overcast
8:04 AM 19.4 °F - 10.4 °F 68% 29.90 in 7.0 mi Calm Calm - N/A   Overcast
8:24 AM 21.2 °F - 8.6 °F 58% 29.91 in 7.0 mi Calm Calm - N/A   Overcast
8:43 AM 21.2 °F 16.4 °F 8.6 °F 58% 29.91 in 7.0 mi SSW 3.5 mph - N/A   Overcast
9:04 AM 21.2 °F 16.4 °F 8.6 °F 58% 29.91 in 10.0 mi South 3.5 mph - N/A   Overcast
9:24 AM 23.0 °F - 8.6 °F 54% 29.91 in 10.0 mi Calm Calm - N/A   Overcast
9:44 AM 23.0 °F - 10.4 °F 59% 29.91 in 10.0 mi Calm Calm - N/A   Overcast
10:04 AM 23.0 °F - 10.4 °F 59% 29.91 in 7.0 mi Calm Calm - N/A   Overcast
10:24 AM 23.0 °F - 10.4 °F 59% 29.91 in 7.0 mi Calm Calm - N/A   Overcast
10:44 AM 24.8 °F - 12.2 °F 59% 29.91 in 7.0 mi Calm Calm - N/A   Overcast
11:03 AM 26.6 °F 22.6 °F 12.2 °F 55% 29.91 in 10.0 mi SSW 3.5 mph - N/A   Overcast
11:25 AM 28.4 °F - 12.2 °F 51% 29.90 in 10.0 mi Calm Calm - N/A   Overcast
11:45 AM 28.4 °F - 14.0 °F 55% 29.91 in 10.0 mi Calm Calm - N/A   Overcast
12:05 PM 28.4 °F 24.6 °F 14.0 °F 55% 29.90 in 10.0 mi SW 3.5 mph - N/A   Overcast
12:25 PM 28.4 °F 24.6 °F 14.0 °F 55% 29.89 in 7.0 mi SSW 3.5 mph - N/A   Overcast
12:45 PM 28.4 °F 23.3 °F 14.0 °F 55% 29.87 in 10.0 mi SW 4.6 mph - N/A   Overcast
1:05 PM 28.4 °F 23.3 °F 14.0 °F 55% 29.87 in 10.0 mi SSW 4.6 mph - N/A   Overcast
1:25 PM 28.4 °F 23.3 °F 12.2 °F 51% 29.86 in 10.0 mi South 4.6 mph - N/A   Overcast
1:45 PM 26.6 °F 22.6 °F 12.2 °F 55% 29.85 in 10.0 mi South 3.5 mph - N/A   Overcast
2:05 PM 28.4 °F 23.3 °F 14.0 °F 55% 29.85 in 10.0 mi SW 4.6 mph - N/A   Overcast
2:25 PM 28.4 °F 23.3 °F 14.0 °F 55% 29.85 in 10.0 mi SSE 4.6 mph - N/A   Overcast
2:45 PM 28.4 °F 24.6 °F 12.2 °F 51% 29.85 in 10.0 mi SW 3.5 mph - N/A   Overcast
3:05 PM 28.4 °F 24.6 °F 12.2 °F 51% 29.86 in 10.0 mi SW 3.5 mph - N/A   Overcast
3:25 PM 30.2 °F 26.7 °F 14.0 °F 51% 29.86 in 10.0 mi SSW 3.5 mph - N/A   Overcast
3:44 PM 28.4 °F 24.6 °F 14.0 °F 55% 29.86 in 10.0 mi South 3.5 mph - N/A   Overcast
4:05 PM 26.6 °F - 14.0 °F 59% 29.86 in 10.0 mi Calm Calm - N/A   Overcast
4:25 PM 26.6 °F 22.6 °F 14.0 °F 59% 29.86 in 10.0 mi SSW 3.5 mph - N/A   Overcast
4:45 PM 26.6 °F 22.6 °F 14.0 °F 59% 29.87 in 10.0 mi SW 3.5 mph - N/A   Overcast
5:05 PM 26.6 °F 21.2 °F 14.0 °F 59% 29.88 in 10.0 mi SSW 4.6 mph - N/A   Mostly Cloudy
5:24 PM 24.8 °F 20.5 °F 12.2 °F 59% 29.89 in 10.0 mi South 3.5 mph - N/A   Scattered Clouds
5:45 PM 24.8 °F 20.5 °F 12.2 °F 59% 29.90 in 10.0 mi SW 3.5 mph - N/A   Scattered Clouds
6:04 PM 23.0 °F 18.4 °F 12.2 °F 63% 29.91 in 10.0 mi SSW 3.5 mph - N/A   Mostly Cloudy
6:25 PM 23.0 °F 18.4 °F 12.2 °F 63% 29.91 in 10.0 mi SSW 3.5 mph - N/A   Scattered Clouds
6:45 PM 23.0 °F 17.0 °F 12.2 °F 63% 29.93 in 10.0 mi SW 4.6 mph - N/A   Mostly Cloudy
7:04 PM 23.0 °F - 14.0 °F 68% 29.93 in 10.0 mi Calm Calm - N/A   Overcast
7:25 PM 23.0 °F - 14.0 °F 68% 29.94 in 10.0 mi Calm Calm - N/A   Overcast
7:45 PM 23.0 °F - 14.0 °F 68% 29.95 in 10.0 mi Calm Calm - N/A   Overcast
8:05 PM 23.0 °F 18.4 °F 14.0 °F 68% 29.95 in 10.0 mi SSW 3.5 mph - N/A   Overcast
8:25 PM 23.0 °F - 14.0 °F 68% 29.96 in 10.0 mi Calm Calm - N/A   Overcast
8:44 PM 23.0 °F - 14.0 °F 68% 29.98 in 10.0 mi Calm Calm - N/A   Overcast
9:04 PM 23.0 °F - 14.0 °F 68% 29.98 in 10.0 mi Calm Calm - N/A   Overcast
9:24 PM 23.0 °F - 14.0 °F 68% 29.99 in 10.0 mi Calm Calm - N/A   Overcast
9:44 PM 23.0 °F - 14.0 °F 68% 30.00 in 10.0 mi Calm Calm - N/A   Overcast
10:04 PM 21.2 °F - 14.0 °F 74% 30.00 in 10.0 mi Calm Calm - N/A   Overcast
10:24 PM 21.2 °F - 14.0 °F 74% 30.00 in 10.0 mi Calm Calm - N/A   Overcast
10:44 PM 21.2 °F - 14.0 °F 74% 30.00 in 10.0 mi Calm Calm - N/A   Overcast
11:03 PM 21.2 °F - 14.0 °F 74% 30.00 in 10.0 mi Calm Calm - N/A   Overcast
11:23 PM 21.2 °F - 12.2 °F 68% 29.99 in 10.0 mi Calm Calm - N/A   Mostly Cloudy
11:43 PM 19.4 °F - 12.2 °F 74% 30.00 in 10.0 mi Calm Calm - N/A   Mostly Cloudy